Location: Melbourne
(37.8666°S, 145.1333°E)
Time: 09:46:01
(UTC+11:00)

Daily predictions for brighter satellites

Satellite Brightness Start Highest point End
(mag) Time Altitude Azimuth Time Altitude Azimuth Time Altitude Azimuth
Cosmos 2227 4.3 20:16:29 10° SSW 20:22:09 67° ESE 20:27:44 10° NNE
H-2A R/B 4.5 20:24:35 10° ESE 20:26:26 13° E 20:28:17 10° ENE
FREGAT/IRIS 3.4 20:25:10 10° SSE 20:28:04 33° E 20:30:54 10° NNE
Cosmos 44 3.7 20:25:30 10° N 20:29:33 34° ENE 20:33:49 10° SE
SeaSat 1 2.5 20:24:35 10° SSE 20:29:36 85° ENE 20:34:33 10° NNW
METEOR-M 4.3 20:25:56 10° SSE 20:31:15 53° E 20:36:29 10° N
Cosmos 44 Rocket 3.3 20:28:54 10° NNW 20:33:33 62° ENE 20:38:23 10° SE
Cosmos 220 Rocket 4.0 20:31:31 10° SSW 20:36:02 85° ESE 20:40:25 10° NNE
Meteor 1-29 4.0 20:35:55 10° N 20:39:19 49° W 20:42:47 10° SSW
ISS -1.6 20:39:18 10° W 20:42:21 34° SSW 20:45:25 10° SE
ALOS 2.8 20:38:00 10° SSE 20:42:23 36° E 20:46:41 10° NNE
Cosmos 1025 Rocket 3.4 20:47:01 10° NNE 20:51:11 43° E 20:55:24 10° SSE
Cosmos 1295 Rocket 4.5 20:47:20 10° S 20:53:32 90° E 20:59:41 10° N
SL-8 Rocket 4.0 20:48:30 10° S 20:54:45 71° E 21:00:58 10° NNE
SL-16 R/B 2.2 20:49:58 10° NNW 20:55:39 86° ENE 21:01:25 10° SSE
Cosmos 1238 Rocket 4.1 20:51:45 10° NNW 20:56:07 59° W 21:01:34 10° S
NOSS 2-1 (D) 4.4 20:49:15 10° SSW 20:56:21 86° WNW 21:01:29 10° NNE
NOSS 2-1 (C) 4.4 20:49:36 10° SSW 20:56:43 87° WNW 21:01:54 10° NNE
Cosmos 2263 Rocket 2.7 20:53:35 10° S 20:59:00 43° ESE 21:03:15 16° NE
ERBS 2.3 20:59:04 10° NNW 21:02:31 70° NE 21:06:01 10° SE
Cosmos 405 Rocket 3.9 21:02:40 20° ENE 21:03:35 22° E 21:06:35 10° SE
Cosmos 1461 3.4 21:00:21 10° N 21:04:36 43° ENE 21:09:01 10° SE
BREEZE-M DEB (TANK) 4.4 21:03:45 10° SW 21:04:49 12° SSW 21:05:56 10° SSE
Cosmos 1666 2.6 21:03:51 10° S 21:07:48 71° E 21:11:39 10° NNE
Meteor 2-9 Rocket 4.1 21:02:53 10° S 21:08:14 61° E 21:13:33 10° NNE
Abrixas 2.8 21:05:22 10° WSW 21:08:16 57° NW 21:09:39 26° NNE
Cosmos 2322 Rocket 2.5 21:03:52 10° NNW 21:09:31 71° WSW 21:15:16 10° SSE
Cosmos 1726 Rocket 4.3 21:06:43 10° SSE 21:10:49 34° ESE 21:12:49 23° ENE
USA 186 3.1 21:14:19 10° SE 21:16:21 24° ESE 21:16:21 24° ESE
Cosmos 864 Rocket 4.5 21:14:58 10° S 21:21:25 80° E 21:27:45 10° N
Cosmos 968 Rocket 3.9 21:16:24 10° SSW 21:21:42 67° WNW 21:26:55 10° N
CENTAUR R/B 3.2 21:14:53 10° NW 21:22:55 73° SW 21:30:09 10° SSE
Resurs 01 Rocket 1.5 21:19:13 10° SSE 21:23:45 72° ENE 21:28:11 10° N
Okean 1-7 Rocket 4.4 21:20:53 10° NNW 21:25:13 54° W 21:29:36 10° S
Okean 2 3.3 21:22:35 10° N 21:26:47 77° E 21:31:01 10° S
Cosmos 2322 3.7 21:26:27 10° N 21:32:00 58° ENE 21:37:36 10° SSE
OAO 2 Rocket 4.2 21:27:57 10° NW 21:32:39 32° NNE 21:33:26 31° NE
Cosmos 2208 Rocket 4.2 21:27:46 10° N 21:32:49 48° ENE 21:37:51 10° SSE
Resurs 1-3 3.5 21:28:42 10° SSE 21:33:11 77° ENE 21:37:35 10° N
deb Chang Zheng 4 4.1 21:34:33 37° E 21:35:22 41° ESE 21:39:37 10° S
Tiangong 1 2.4 21:33:03 10° W 21:35:38 26° NNW 21:35:48 26° NNW
Milstar 3 3.5 21:29:52 10° WNW 21:36:01 40° N 21:39:14 27° NE
MINOTAUR IV R/B 4.5 21:32:17 10° SSW 21:36:53 83° ESE 21:38:43 36° NNE
USA 32 4.1 21:36:28 26° NNE 21:39:13 54° E 21:44:23 10° SSE
Meteor 2-21 Rocket 4.3 21:41:22 10° S 21:47:34 81° E 21:51:20 25° NNE
Cosmos 2237 4.2 21:45:36 10° N 21:51:09 54° ENE 21:56:43 10° SSE
COSMOS 2428 3.0 21:51:25 43° ENE 21:51:26 43° ENE 21:56:51 10° SE
CZ-4B R/B 4.1 21:53:07 37° ESE 21:53:07 37° ESE 21:57:31 10° S
DMSP B5D2-2 4.2 21:55:54 49° E 21:56:35 52° ESE 22:01:44 10° S
Cosmos 2219 Rocket 4.3 22:02:03 12° SE 22:02:03 12° SE 22:02:36 10° SE
Cosmos 2360 Rocket 2.4 21:52:22 10° NNW 21:58:03 74° WSW 22:03:48 10° SSE
H-2A R/B 4.3 21:57:22 10° S 22:00:52 35° WSW 22:04:17 10° NW
Nadezhda 3 Rocket 4.0 21:55:04 10° N 22:01:23 88° W 22:07:51 10° S
Cosmos 1821 Rocket 4.1 21:55:46 10° S 22:01:51 54° E 22:02:53 48° ENE
CZ-2D R/B 4.2 21:58:38 10° S 22:02:25 49° WSW 22:05:19 16° NW
Cosmos 1606 Rocket 4.4 21:58:38 10° SSW 22:02:58 48° W 22:05:11 25° NNW
Lacrosse 5 3.9 22:04:38 10° SSW 22:07:50 16° SSE 22:09:05 15° SE
Spot 2 Rocket 4.5 22:03:55 10° S 22:08:48 47° WSW 22:13:38 10° NW
Spot 1 4.2 22:04:29 10° S 22:09:00 72° WSW 22:10:18 44° NW
Cosmos 2285 Rocket 3.8 22:13:19 34° N 22:16:17 74° ENE 22:22:37 10° SSE
ISS 0.0 22:19:20 10° SSW 22:19:37 10° SSW 22:19:53 10° S
Cosmos 2058 Rocket 3.9 22:19:26 10° SSW 22:23:41 46° W 22:24:11 44° WNW
Cosmos 2344 4.5 22:11:53 10° SW 22:23:42 63° WNW 22:28:37 31° N
Envisat 3.0 22:20:10 10° SSE 22:24:54 75° SSE 22:24:54 75° SSE
Cosmos 1934 Rocket 3.9 22:20:19 10° S 22:26:44 68° E 22:27:02 67° E
Cosmos 1844 Rocket 3.1 22:23:04 10° SSW 22:28:00 48° SE 22:28:00 48° SE
Helios 1A 4.3 22:25:12 10° S 22:29:13 39° WSW 22:30:46 28° WNW
Cosmos 2228 3.9 22:27:33 10° SSW 22:31:48 48° W 22:31:48 48° W
Cosmos 2263 Rocket 4.0 22:38:06 10° SW 22:42:38 25° WNW 22:45:00 19° NW
Cosmos 2333 Rocket 4.2 22:49:46 17° SE 22:49:46 17° SE 22:51:05 10° SSE
Lacrosse 4 Rocket 3.8 22:55:01 10° S 22:56:36 20° S 22:56:36 20° S
Cosmos 2278 Rocket 3.5 23:13:27 10° SSW 23:16:46 34° S 23:16:46 34° S
Cosmos 2237 Rocket 4.3 23:34:28 18° SSE 23:34:28 18° SSE 23:35:50 10° SSE
Cosmos 2219 Rocket 3.9 23:43:43 30° SSW 23:43:43 30° SSW 23:47:02 10° S
ATLAS 5 CENTAUR R/B 4.4 23:39:25 10° S 23:41:06 16° S 23:41:06 16° S
Lacrosse 5 4.2 23:46:35 10° SW 23:48:16 21° SSW 23:48:16 21° SSW
